GW5496 Weather Reports


time (UTC)temp
C
wind
direction
speed
KPH
gust
KPH
rain 1hr
cm
rain 24hr
cm
rain mn
cm
humidity
%
barometer
mb
20260506034020 11 20 4.8 11.3 0.00 0.00 0.00 69 1018.1
20260506033518 11 352 9.7 14.5 0.00 0.00 0.00 68 1017.8
20260506033015 11 299 11.3 12.9 0.00 0.00 0.00 66 1017.7
20260506032512 11 321 14.5 19.3 0.00 0.00 0.00 67 1017.7
20260506032008 12 221 3.2 14.5 0.00 0.00 0.00 68 1017.6
20260506031506 12 0 4.8 9.7 0.00 0.00 0.00 67 1017.4
20260506031003 12 29 9.7 16.1 0.00 0.00 0.00 67 1017.4
20260506030501 12 6 9.7 12.9 0.00 0.00 0.00 67 1017.5
20260506025958 12 246 4.8 11.3 0.00 0.00 0.00 65 1017.5
20260506025454 12 50 6.4 14.5 0.00 0.00 0.00 68 1017.3
20260506024951 12 359 8.0 16.1 0.00 0.00 0.00 65 1017.3
20260506024448 12 343 6.4 14.5 0.00 0.00 0.00 66 1017.2
20260506023944 12 331 3.2 16.1 0.00 0.00 0.00 65 1017.2
20260506023441 12 359 8.0 14.5 0.00 0.00 0.00 67 1017.2
20260506022937 12 21 8.0 19.3 0.00 0.00 0.00 66 1017.1
20260506022435 12 312 16.1 19.3 0.00 0.00 0.00 65 1017.0
20260506021933 13 4 14.5 20.9 0.00 0.00 0.00 62 1016.9
20260506021430 13 347 6.4 16.1 0.00 0.00 0.00 62 1016.9
20260506020927 14 24 9.7 12.9 0.00 0.00 0.00 60 1016.8
20260506020425 14 18 4.8 9.7 0.00 0.00 0.00 60 1016.8
20260506015922 14 327 6.4 14.5 0.00 0.00 0.00 59 1016.6
20260506015419 15 337 3.2 9.7 0.00 0.00 0.00 57 1016.4
20260506014916 15 20 4.8 8.0 0.00 0.00 0.00 58 1016.5
20260506014413 15 15 9.7 16.1 0.00 0.00 0.00 56 1016.5
20260506013909 15 34 6.4 14.5 0.00 0.00 0.00 58 1016.5
20260506013408 15 56 12.9 16.1 0.00 0.00 0.00 55 1016.2
20260506012903 15 348 6.4 9.7 0.00 0.00 0.00 55 1016.6
20260506012400 14 332 3.2 9.7 0.00 0.00 0.00 60 1016.4
20260506011857 14 289 6.4 9.7 0.00 0.00 0.00 53 1016.5
20260506011354 14 319 9.7 12.9 0.00 0.00 0.00 60 1016.5
20260506010851 14 354 11.3 16.1 0.00 0.00 0.00 61 1016.5
20260506010350 14 281 4.8 14.5 0.00 0.00 0.00 58 1016.4
20260506005846 14 316 8.0 12.9 0.00 0.00 0.00 61 1016.4
20260506005343 15 333 11.3 17.7 0.00 0.00 0.00 58 1016.3
20260506004838 16 7 6.4 9.7 0.00 0.00 0.00 54 1016.3
20260506004337 16 36 6.4 6.4 0.00 0.00 0.00 54 1016.2
20260506003833 17 32 9.7 9.7 0.00 0.00 0.00 55 1016.1
20260506003329 17 107 4.8 8.0 0.00 0.00 0.00 49 1016.1
20260506002825 16 104 6.4 11.3 0.00 0.00 0.00 51 1015.9
20260506002322 17 103 9.7 17.7 0.00 0.00 0.00 50 1016.0
20260506001818 17 95 4.8 16.1 0.00 0.00 0.00 50 1016.0
20260506001315 17 140 6.4 14.5 0.00 0.00 0.00 51 1015.9
20260506000812 17 53 3.2 9.7 0.00 0.00 0.00 51 1015.8
20260506000310 17 57 3.2 6.4 0.00 0.00 0.00 51 1015.8
20260505235806 16 58 4.8 9.7 0.00 0.00 0.00 53 1015.8
20260505235305 16 38 4.8 9.7 0.00 0.00 0.00 56 1015.9
20260505234800 15 316 0.0 6.4 0.00 0.00 0.00 63 1015.9
20260505234258 15 7 4.8 8.0 0.00 0.00 0.00 63 1016.0
20260505233755 16 266 1.6 8.0 0.00 0.00 0.00 54 1015.8
20260505233253 17 4 4.8 19.3 0.00 0.00 0.00 59 1015.6
20260505232750 17 22 3.2 11.3 0.00 0.00 0.00 57 1015.6
20260505232247 17 52 4.8 14.5 0.00 0.00 0.00 55 1015.4
20260505231743 18 32 8.0 12.9 0.00 0.00 0.00 54 1015.4
20260505231242 18 96 6.4 9.7 0.00 0.00 0.00 50 1015.5
20260505230740 18 83 3.2 9.7 0.00 0.00 0.00 51 1015.7
20260505230237 17 54 3.2 12.9 0.00 0.00 0.00 51 1015.6
20260505225733 18 257 0.0 9.7 0.00 0.00 0.00 52 1015.3
20260505225231 18 26 4.8 11.3 0.00 0.00 0.00 53 1015.6
20260505224725 18 36 6.4 11.3 0.00 0.00 0.00 53 1015.5
20260505224224 18 72 8.0 12.9 0.00 0.00 0.00 55 1015.5
20260505223721 18 36 3.2 6.4 0.00 0.00 0.00 52 1015.3
20260505223217 17 154 1.6 8.0 0.00 0.00 0.00 51 1015.5
20260505222713 18 120 3.2 9.7 0.00 0.00 0.00 58 1015.5
20260505222209 18 33 1.6 8.0 0.00 0.00 0.00 51 1015.6
20260505221707 18 85 0.0 11.3 0.00 0.00 0.00 53 1015.4
20260505221203 18 103 9.7 16.1 0.00 0.00 0.00 50 1015.4
20260505220700 18 21 6.4 9.7 0.00 0.00 0.00 54 1015.3
20260505220158 18 49 6.4 12.9 0.00 0.00 0.00 50 1015.3
20260505215655 17 114 3.2 19.3 0.00 0.00 0.00 52 1015.4
20260505215153 17 119 12.9 14.5 0.00 0.00 0.00 52 1015.3
20260505214651 17 50 6.4 14.5 0.00 0.00 0.00 56 1015.2
20260505214148 17 83 4.8 9.7 0.00 0.00 0.00 52 1015.2
20260505213645 16 105 11.3 11.3 0.00 0.00 0.00 52 1015.1
20260505213142 17 70 8.0 12.9 0.00 0.00 0.00 53 1014.9
20260505212638 17 352 6.4 9.7 0.00 0.00 0.00 57 1014.9
20260505212136 18 34 6.4 9.7 0.00 0.00 0.00 55 1014.9
20260505211632 18 40 6.4 11.3 0.00 0.00 0.00 56 1014.7
20260505211130 18 106 4.8 12.9 0.00 0.00 0.00 53 1014.9
20260505210626 18 122 3.2 14.5 0.00 0.00 0.00 56 1014.8
20260505210123 17 57 6.4 9.7 0.00 0.00 0.00 57 1014.8
20260505205621 17 77 6.4 12.9 0.00 0.00 0.00 56 1014.5
20260505205119 18 25 11.3 14.5 0.00 0.00 0.00 55 1014.5
20260505204615 17 81 4.8 12.9 0.00 0.00 0.00 54 1014.7
20260505204113 17 78 4.8 8.0 0.00 0.00 0.00 57 1014.6
20260505203609 16 61 3.2 16.1 0.00 0.00 0.00 56 1014.4
20260505203107 16 72 3.2 20.9 0.00 0.00 0.00 57 1014.5
20260505202602 16 72 3.2 9.7 0.00 0.00 0.00 58 1014.4
20260505202058 16 45 6.4 9.7 0.00 0.00 0.00 58 1014.4
20260505201555 16 74 9.7 11.3 0.00 0.00 0.00 56 1014.6
20260505201053 16 66 4.8 9.7 0.00 0.00 0.00 58 1014.3
20260505200550 16 45 9.7 12.9 0.00 0.00 0.00 62 1014.1
20260505200047 15 12 6.4 11.3 0.00 0.00 0.00 61 1014.1
20260505195543 15 15 3.2 9.7 0.00 0.00 0.00 59 1014.1
20260505195041 15 79 11.3 12.9 0.00 0.00 0.00 63 1014.3
20260505194538 15 44 8.0 9.7 0.00 0.00 0.00 64 1014.3
20260505194033 14 81 8.0 14.5 0.00 0.00 0.00 67 1014.1
20260505193531 14 61 6.4 11.3 0.00 0.00 0.00 67 1014.2
20260505193028 14 32 9.7 12.9 0.00 0.00 0.00 68 1014.1
20260505192526 15 32 3.2 12.9 0.00 0.00 0.00 68 1014.1
20260505192024 14 29 9.7 12.9 0.00 0.00 0.00 66 1014.0
20260505191522 14 35 8.0 12.9 0.00 0.00 0.00 67 1014.2
20260505191020 14 56 6.4 12.9 0.00 0.00 0.00 68 1014.2
20260505190514 14 18 3.2 9.7 0.00 0.00 0.00 68 1014.3
20260505190010 13 37 6.4 9.7 0.00 0.00 0.00 72 1014.1
20260505185507 13 60 4.8 9.7 0.00 0.00 0.00 74 1014.3
20260505185003 14 43 9.7 12.9 0.00 0.00 0.00 73 1014.1
20260505184500 14 31 6.4 9.7 0.00 0.00 0.00 71 1014.1
20260505183957 14 35 6.4 11.3 0.00 0.00 0.00 72 1013.9
20260505183454 13 9 6.4 14.5 0.00 0.00 0.00 73 1013.9
20260505182950 13 65 3.2 9.7 0.00 0.00 0.00 72 1014.0
20260505182448 13 39 9.7 9.7 0.00 0.00 0.00 76 1014.1
20260505181944 13 48 9.7 11.3 0.00 0.00 0.00 75 1014.2
20260505181441 13 48 6.4 11.3 0.00 0.00 0.00 72 1013.9
20260505180938 13 5 6.4 11.3 0.00 0.00 0.00 74 1014.0
20260505180434 13 23 6.4 9.7 0.00 0.00 0.00 77 1014.0
20260505175931 13 65 6.4 9.7 0.00 0.00 0.00 77 1014.0
20260505175427 12 84 3.2 8.0 0.00 0.00 0.00 77 1013.8
20260505174924 12 42 9.7 11.3 0.00 0.00 0.00 81 1013.8
20260505174422 12 59 6.4 9.7 0.00 0.00 0.00 83 1013.9
20260505173917 12 22 3.2 9.7 0.00 0.00 0.00 82 1013.7
20260505173414 12 40 6.4 8.0 0.00 0.00 0.00 79 1013.6
20260505172911 12 36 4.8 9.7 0.00 0.00 0.00 81 1013.7
20260505172409 12 84 6.4 8.0 0.00 0.00 0.00 80 1013.7
20260505171908 12 96 8.0 8.0 0.00 0.00 0.00 80 1013.7
20260505171406 12 39 3.2 6.4 0.00 0.00 0.00 82 1013.5
20260505170902 11 46 3.2 11.3 0.00 0.00 0.00 84 1013.5
20260505170359 11 126 3.2 4.8 0.00 0.00 0.00 87 1013.7
20260505165854 11 56 3.2 6.4 0.00 0.00 0.00 87 1013.6
20260505165350 11 131 4.8 4.8 0.00 0.00 0.00 88 1013.5
20260505164846 11 120 4.8 6.4 0.00 0.00 0.00 85 1013.5
20260505164342 11 111 4.8 4.8 0.00 0.00 0.00 87 1013.5
20260505163841 11 100 6.4 6.4 0.00 0.00 0.00 87 1013.5
20260505163339 11 65 4.8 6.4 0.00 0.00 0.00 87 1013.6
20260505162838 10 86 6.4 8.0 0.00 0.00 0.00 89 1013.3
20260505162333 10 38 3.2 6.4 0.00 0.00 0.00 91 1013.4
20260505161831 10 114 3.2 4.8 0.00 0.00 0.00 92 1013.6
20260505161328 9 95 3.2 6.4 0.00 0.00 0.00 91 1013.3
20260505160825 9 91 4.8 4.8 0.00 0.00 0.00 92 1013.0
20260505160323 9 97 4.8 4.8 0.00 0.00 0.00 93 1012.9
20260505153302 8 83 4.8 6.4 0.00 0.00 0.00 97 1012.9
20260505152759 8 99 4.8 6.4 0.00 0.00 0.00 97 1012.9
20260505152256 8 103 6.4 6.4 0.00 0.00 0.00 97 1012.9
20260505151755 8 99 6.4 8.0 0.00 0.00 0.00 97 1012.9
20260505151253 8 95 6.4 6.4 0.00 0.00 0.00 97 1012.9
20260505150750 8 115 6.4 8.0 0.00 0.00 0.00 98 1012.8
20260505150247 8 114 6.4 8.0 0.00 0.00 0.00 98 1012.9
20260505140217 6 108 4.8 6.4 0.00 0.00 0.00 98 1012.5
20260505130141 6 95 6.4 8.0 0.00 0.00 0.00 98 1011.8
20260505124630 6 96 6.4 8.0 0.00 0.00 0.00 98 1011.6
20260505124127 6 112 6.4 6.4 0.00 0.00 0.00 98 1011.4
20260505123623 6 77 8.0 8.0 0.00 0.00 0.00 98 1011.6
20260505123120 6 94 4.8 6.4 0.00 0.00 0.00 98 1011.6
20260505122617 6 91 6.4 8.0 0.00 0.00 0.00 98 1011.5
20260505122114 6 76 4.8 8.0 0.00 0.00 0.00 98 1011.5
20260505121610 6 92 4.8 6.4 0.00 0.00 0.00 98 1011.6
20260505121107 6 114 6.4 6.4 0.00 0.00 0.00 98 1011.7
20260505120603 6 94 8.0 8.0 0.00 0.00 0.00 98 1011.6
20260505120059 6 96 6.4 8.0 0.00 0.00 0.00 98 1011.6
20260505115554 6 104 4.8 4.8 0.00 0.00 0.00 97 1011.8
20260505115051 6 104 4.8 6.4 0.00 0.00 0.00 97 1011.6
20260505114548 6 81 6.4 6.4 0.00 0.00 0.00 98 1011.7
20260505114044 6 91 4.8 6.4 0.00 0.00 0.00 97 1012.0
20260505113541 6 91 6.4 6.4 0.00 0.00 0.00 97 1011.9
20260505113038 6 95 6.4 6.4 0.00 0.00 0.00 97 1011.9
20260505112534 6 93 6.4 6.4 0.00 0.00 0.00 97 1011.8
20260505112033 6 89 6.4 8.0 0.00 0.00 0.00 97 1012.0
20260505111531 6 87 6.4 6.4 0.00 0.00 0.00 97 1011.9
20260505111028 6 93 6.4 6.4 0.00 0.00 0.00 97 1012.0
20260505110525 6 87 6.4 8.0 0.00 0.00 0.00 97 1011.9
20260505101957 6 77 4.8 6.4 0.00 0.00 0.00 97 1012.1
20260505101455 6 87 6.4 8.0 0.00 0.00 0.00 97 1012.2
20260505100951 6 89 4.8 6.4 0.00 0.00 0.00 97 1012.1
20260505100449 6 94 6.4 8.0 0.00 0.00 0.00 97 1012.3
20260505095945 7 87 6.4 8.0 0.00 0.00 0.00 96 1012.4
20260505095442 7 122 4.8 6.4 0.00 0.00 0.00 96 1012.4
20260505094938 7 94 6.4 8.0 0.00 0.00 0.00 96 1012.3
20260505094435 7 95 6.4 6.4 0.00 0.00 0.00 96 1012.2
20260505093931 7 115 6.4 6.4 0.00 0.00 0.00 96 1012.3
20260505093427 7 92 6.4 6.4 0.00 0.00 0.00 96 1012.3
20260505092925 7 79 8.0 9.7 0.00 0.00 0.00 96 1012.3
20260505092423 7 86 4.8 6.4 0.00 0.00 0.00 96 1012.2
20260505091920 7 81 4.8 6.4 0.00 0.00 0.00 96 1012.1
20260505091417 7 79 4.8 6.4 0.00 0.00 0.00 96 1012.3
20260505090915 7 81 6.4 8.0 0.00 0.00 0.00 96 1012.2
20260505090413 7 82 6.4 6.4 0.00 0.00 0.00 96 1012.4
20260505085910 7 86 6.4 8.0 0.00 0.00 0.00 96 1012.2
20260505085408 7 76 4.8 8.0 0.00 0.00 0.00 96 1012.3
20260505084906 7 72 8.0 8.0 0.00 0.00 0.00 96 1012.4
20260505084404 7 70 8.0 8.0 0.00 0.00 0.00 96 1012.3
20260505083901 7 78 6.4 8.0 0.00 0.00 0.00 96 1012.4
20260505083359 7 83 6.4 8.0 0.00 0.00 0.00 95 1012.4
20260505082855 7 106 4.8 6.4 0.00 0.00 0.00 95 1012.4
20260505082351 8 83 6.4 8.0 0.00 0.00 0.00 95 1012.5
20260505081848 8 91 8.0 8.0 0.00 0.00 0.00 95 1012.2
20260505081344 8 95 6.4 8.0 0.00 0.00 0.00 95 1012.4
20260505080841 8 85 6.4 8.0 0.00 0.00 0.00 95 1012.4
20260505080337 8 115 6.4 6.4 0.00 0.00 0.00 95 1012.4
20260505075833 8 89 4.8 6.4 0.00 0.00 0.00 95 1012.3
20260505075330 8 92 6.4 6.4 0.00 0.00 0.00 95 1012.4
20260505074827 8 80 6.4 6.4 0.00 0.00 0.00 95 1012.3
20260505074324 8 76 6.4 6.4 0.00 0.00 0.00 94 1012.4
20260505073822 8 122 4.8 6.4 0.00 0.00 0.00 94 1012.1
20260505073320 8 100 4.8 8.0 0.00 0.00 0.00 94 1012.2
20260505072816 8 100 6.4 6.4 0.00 0.00 0.00 94 1012.3
20260505072312 8 108 4.8 6.4 0.00 0.00 0.00 94 1012.1
20260505071808 8 87 4.8 8.0 0.00 0.00 0.00 93 1012.3
20260505071305 8 79 6.4 6.4 0.00 0.00 0.00 93 1012.4
20260505070803 8 73 6.4 6.4 0.00 0.00 0.00 93 1012.3
20260505070259 8 77 4.8 8.0 0.00 0.00 0.00 93 1012.4
20260505065754 8 80 6.4 8.0 0.00 0.00 0.00 93 1012.4
20260505065252 8 88 6.4 6.4 0.00 0.00 0.00 93 1012.5
20260505064749 9 78 6.4 8.0 0.00 0.00 0.00 92 1012.3
20260505064246 9 86 6.4 8.0 0.00 0.00 0.00 92 1012.4
20260505063744 9 94 4.8 8.0 0.00 0.00 0.00 92 1012.5
20260505063240 9 96 4.8 8.0 0.00 0.00 0.00 92 1012.5
20260505062736 9 89 4.8 6.4 0.00 0.00 0.00 91 1012.6
20260505062234 9 83 4.8 6.4 0.00 0.00 0.00 91 1012.4
20260505061731 10 104 6.4 8.0 0.00 0.00 0.00 92 1012.5
20260505061229 10 70 4.8 6.4 0.00 0.00 0.00 91 1012.5
20260505060726 10 72 4.8 6.4 0.00 0.00 0.00 91 1012.7
20260505060223 10 79 6.4 8.0 0.00 0.00 0.00 91 1012.7
20260505055718 10 69 6.4 8.0 0.00 0.00 0.00 91 1012.7
20260505055215 10 81 4.8 8.0 0.00 0.00 0.00 90 1012.6
20260505054712 10 89 4.8 6.4 0.00 0.00 0.00 90 1012.6
20260505054210 10 130 4.8 6.4 0.00 0.00 0.00 89 1012.5
20260505053708 10 108 4.8 8.0 0.00 0.00 0.00 89 1012.5
20260505053204 11 88 4.8 4.8 0.00 0.00 0.00 89 1012.5
20260505052701 11 95 6.4 6.4 0.00 0.00 0.00 89 1012.4
20260505052158 11 89 6.4 8.0 0.00 0.00 0.00 89 1012.3
20260505051655 11 81 6.4 6.4 0.00 0.00 0.00 88 1012.5
20260505051153 11 77 4.8 6.4 0.00 0.00 0.00 88 1012.5
20260505050651 11 135 4.8 6.4 0.00 0.00 0.00 88 1012.4
20260505050149 11 96 6.4 6.4 0.00 0.00 0.00 87 1012.6
20260505041618 13 93 3.2 4.8 0.00 0.00 0.00 77 1012.5
20260505041115 14 111 4.8 6.4 0.00 0.00 0.00 75 1012.6
20260505040613 15 88 4.8 6.4 0.00 0.00 0.00 75 1012.6
20260505040110 15 88 4.8 4.8 0.00 0.00 0.00 72 1012.6
20260505035606 16 88 4.8 6.4 0.00 0.00 0.00 70 1012.9
20260505035102 16 87 4.8 8.0 0.00 0.00 0.00 69 1012.8
20260505034559 16 85 4.8 6.4 0.00 0.00 0.00 69 1012.6